EN

Hourly Weather Dziegciarnia

Today, 31 October, Saturday

Time Temperature Precipitation Wind Pressure Humidity
00:00 +9°C° 0 mm 1 mps 753 mmHg 95%
01:00 +8°C° 0 mm 1 mps 753 mmHg 95%
02:00 +8°C° 0 mm 1 mps 753 mmHg 95%
03:00 +8°C° 0 mm 1 mps 754 mmHg 95%
04:00 +7°C° 0 mm 1 mps 754 mmHg 95%
05:00 +7°C° 0 mm 1 mps 754 mmHg 95%
06:00 +7°C° 0 mm 1 mps 754 mmHg 95%
07:00 +7°C° 0 mm 1 mps 755 mmHg 94%
08:00 +8°C° 0 mm 1 mps 755 mmHg 90%
09:00 +9°C° 0 mm 1 mps 755 mmHg 85%
10:00 +9°C° 0 mm 2 mps 756 mmHg 81%
11:00 +10°C° 0 mm 2 mps 756 mmHg 77%
12:00 +12°C° 0 mm 2 mps 756 mmHg 73%
13:00 +13°C° 0 mm 2 mps 756 mmHg 69%
14:00 +12°C° 0 mm 2 mps 756 mmHg 72%
15:00 +10°C° 0 mm 2 mps 755 mmHg 75%
16:00 +10°C° 0 mm 2 mps 755 mmHg 79%
17:00 +9°C° 0 mm 2 mps 755 mmHg 81%
18:00 +8°C° 0 mm 3 mps 755 mmHg 84%
19:00 +8°C° 0 mm 3 mps 755 mmHg 87%
20:00 +7°C° 0 mm 3 mps 755 mmHg 88%
21:00 +7°C° 0 mm 3 mps 755 mmHg 89%
22:00 +7°C° 0 mm 3 mps 755 mmHg 90%
23:00 +7°C° 0 mm 3 mps 755 mmHg 90%

Tomorrow, 1 November, Sunday

Time Temperature Precipitation Wind Pressure Humidity
00:00 +5°C° 0 mm 3 mps 755 mmHg 91%
01:00 +5°C° 0 mm 3 mps 755 mmHg 91%
02:00 +5°C° 0 mm 4 mps 754 mmHg 89%
03:00 +5°C° 0 mm 4 mps 753 mmHg 88%
04:00 +5°C° 0 mm 4 mps 753 mmHg 86%
05:00 +6°C° 0 mm 4 mps 753 mmHg 85%
06:00 +6°C° 0 mm 4 mps 753 mmHg 83%
07:00 +6°C° 0 mm 5 mps 752 mmHg 81%
08:00 +7°C° 0 mm 5 mps 752 mmHg 79%
09:00 +8°C° 0 mm 5 mps 752 mmHg 77%
10:00 +8°C° 0 mm 5 mps 751 mmHg 74%
11:00 +9°C° 0 mm 5 mps 751 mmHg 75%
12:00 +11°C° 0 mm 4 mps 751 mmHg 76%
13:00 +11°C° 0 mm 4 mps 750 mmHg 76%
14:00 +11°C° 0.3 mm 4 mps 750 mmHg 82%
15:00 +11°C° 0.3 mm 4 mps 749 mmHg 87%
16:00 +10°C° 0.3 mm 4 mps 749 mmHg 93%
17:00 +11°C° 0.8 mm 4 mps 748 mmHg 93%
18:00 +11°C° 0.8 mm 4 mps 748 mmHg 94%
19:00 +11°C° 0.8 mm 4 mps 748 mmHg 95%
20:00 +11°C° 0.2 mm 4 mps 748 mmHg 94%
21:00 +11°C° 0.2 mm 4 mps 748 mmHg 93%
22:00 +11°C° 0.2 mm 4 mps 747 mmHg 92%
23:00 +10°C° 0.3 mm 5 mps 747 mmHg 93%

Day after tomorrow, 2 November, Monday

Time Temperature Precipitation Wind Pressure Humidity
00:00 +10°C° 0.3 mm 5 mps 747 mmHg 93%
01:00 +10°C° 0.3 mm 5 mps 747 mmHg 93%
02:00 +10°C° 0 mm 5 mps 747 mmHg 94%
03:00 +12°C° 0 mm 5 mps 747 mmHg 94%
04:00 +12°C° 0 mm 4 mps 747 mmHg 94%
05:00 +12°C° 0 mm 4 mps 747 mmHg 93%
06:00 +11°C° 0 mm 4 mps 748 mmHg 92%
07:00 +11°C° 0 mm 3 mps 748 mmHg 91%
08:00 +11°C° 0 mm 3 mps 748 mmHg 87%
09:00 +11°C° 0 mm 3 mps 748 mmHg 84%
10:00 +11°C° 0 mm 3 mps 749 mmHg 81%
11:00 +12°C° 0 mm 3 mps 749 mmHg 82%
12:00 +12°C° 0 mm 3 mps 749 mmHg 83%
13:00 +12°C° 0 mm 4 mps 749 mmHg 84%
14:00 +12°C° 0 mm 4 mps 748 mmHg 88%
15:00 +12°C° 0 mm 4 mps 748 mmHg 91%
16:00 +13°C° 0 mm 4 mps 748 mmHg 95%
17:00 +13°C° 0 mm 4 mps 748 mmHg 95%
18:00 +13°C° 0 mm 4 mps 749 mmHg 95%
19:00 +14°C° 0 mm 4 mps 749 mmHg 94%
20:00 +14°C° 0 mm 4 mps 749 mmHg 94%
21:00 +14°C° 0 mm 4 mps 749 mmHg 94%
22:00 +13°C° 0 mm 4 mps 749 mmHg 94%
23:00 +14°C° 0 mm 4 mps 749 mmHg 93%

3 November, Tuesday

Time Temperature Precipitation Wind Pressure Humidity
00:00 +14°C° 0 mm 4 mps 749 mmHg 92%
01:00 +14°C° 0 mm 4 mps 749 mmHg 92%
02:00 +14°C° 0 mm 4 mps 749 mmHg 92%
03:00 +14°C° 0 mm 4 mps 749 mmHg 92%
04:00 +14°C° 0 mm 4 mps 750 mmHg 93%
05:00 +14°C° 0.1 mm 4 mps 750 mmHg 90%
06:00 +14°C° 0.1 mm 4 mps 751 mmHg 87%
07:00 +13°C° 0.1 mm 4 mps 751 mmHg 84%
08:00 +13°C° 0 mm 4 mps 752 mmHg 79%
09:00 +12°C° 0 mm 5 mps 753 mmHg 74%
10:00 +12°C° 0 mm 5 mps 753 mmHg 69%
11:00 +12°C° 0 mm 5 mps 754 mmHg 65%
12:00 +11°C° 0 mm 6 mps 754 mmHg 61%
13:00 +13°C° 0 mm 6 mps 755 mmHg 57%
14:00 +11°C° 0 mm 6 mps 755 mmHg 60%
15:00 +10°C° 0 mm 5 mps 755 mmHg 63%
16:00 +10°C° 0 mm 4 mps 756 mmHg 66%
17:00 +10°C° 0 mm 4 mps 756 mmHg 69%
18:00 +8°C° 0 mm 4 mps 756 mmHg 71%
19:00 +8°C° 0 mm 3 mps 757 mmHg 73%
20:00 +8°C° 0 mm 3 mps 757 mmHg 75%
21:00 +8°C° 0 mm 3 mps 757 mmHg 76%
22:00 +7°C° 0 mm 3 mps 757 mmHg 77%
23:00 +7°C° 0 mm 3 mps 757 mmHg 78%

4 November, Wednesday

Time Temperature Precipitation Wind Pressure Humidity
00:00 +7°C° 0 mm 3 mps 757 mmHg 78%
01:00 +7°C° 0 mm 3 mps 757 mmHg 79%
02:00 +7°C° 0 mm 3 mps 757 mmHg 80%
03:00 +7°C° 0 mm 3 mps 757 mmHg 81%
04:00 +7°C° 0 mm 3 mps 757 mmHg 81%
05:00 +5°C° 0 mm 3 mps 758 mmHg 82%
06:00 +5°C° 0 mm 3 mps 758 mmHg 82%
07:00 +5°C° 0 mm 3 mps 758 mmHg 83%
08:00 +6°C° 0 mm 4 mps 758 mmHg 79%
09:00 +6°C° 0 mm 4 mps 759 mmHg 75%
10:00 +7°C° 0 mm 4 mps 759 mmHg 71%
11:00 +8°C° 0 mm 4 mps 759 mmHg 68%
12:00 +8°C° 0 mm 4 mps 759 mmHg 65%
13:00 +10°C° 0 mm 4 mps 760 mmHg 62%
14:00 +9°C° 0 mm 3 mps 760 mmHg 66%
15:00 +8°C° 0 mm 3 mps 760 mmHg 69%
16:00 +8°C° 0 mm 2 mps 760 mmHg 72%
17:00 +7°C° 0 mm 2 mps 760 mmHg 75%
18:00 +7°C° 0 mm 2 mps 761 mmHg 78%
19:00 +7°C° 0 mm 1 mps 761 mmHg 80%
20:00 +7°C° 0 mm 1 mps 762 mmHg 82%
21:00 +6°C° 0 mm 1 mps 762 mmHg 83%
22:00 +6°C° 0 mm 1 mps 762 mmHg 84%
23:00 +6°C° 0 mm 1 mps 762 mmHg 85%

5 November, Thursday

Time Temperature Precipitation Wind Pressure Humidity
00:00 +6°C° 0 mm 1 mps 763 mmHg 86%
01:00 +4°C° 0 mm 0 mps 763 mmHg 87%
02:00 +4°C° 0 mm 0 mps 763 mmHg 88%
03:00 +4°C° 0 mm 0 mps 763 mmHg 88%
04:00 +4°C° 0 mm 0 mps 763 mmHg 89%
05:00 +3°C° 0 mm 0 mps 764 mmHg 89%
06:00 +4°C° 0 mm 1 mps 764 mmHg 89%
07:00 +4°C° 0 mm 1 mps 764 mmHg 90%
08:00 +5°C° 0 mm 1 mps 764 mmHg 85%
09:00 +7°C° 0 mm 1 mps 765 mmHg 80%
10:00 +7°C° 0 mm 2 mps 765 mmHg 75%
11:00 +7°C° 0 mm 2 mps 765 mmHg 72%
12:00 +8°C° 0 mm 2 mps 765 mmHg 68%
13:00 +9°C° 0 mm 3 mps 765 mmHg 65%
14:00 +8°C° 0 mm 2 mps 765 mmHg 69%
15:00 +7°C° 0 mm 2 mps 765 mmHg 73%
16:00 +7°C° 0 mm 2 mps 765 mmHg 77%
17:00 +6°C° 0 mm 2 mps 765 mmHg 81%
18:00 +5°C° 0 mm 2 mps 765 mmHg 85%
19:00 +5°C° 0 mm 2 mps 765 mmHg 89%
20:00 +5°C° 0 mm 2 mps 765 mmHg 90%
21:00 +4°C° 0 mm 2 mps 766 mmHg 91%
22:00 +3°C° 0 mm 3 mps 766 mmHg 92%
23:00 +3°C° 0 mm 3 mps 766 mmHg 93%
Show more